This is the latest recevied weather packets stored in our database for station/object N3WGC-14. If no packets are shown the sender has not sent any weather packets the latest 10 day(s).
| Time | Temp. | Humidity | Pressure | Rain* | Wind** | Luminosity | Snow |
|---|---|---|---|---|---|---|---|
| 1777601288 | 12.78° C | 67% | 1013.3 hPa | 0 mm | - | - | - |
| 1777600987 | 12.78° C | 67% | 1013.2 hPa | 0 mm | - | - | - |
| 1777600687 | 12.78° C | 66% | 1013.1 hPa | 0 mm | - | - | - |
| 1777600387 | 12.78° C | 69% | 1013.1 hPa | 0 mm | - | - | - |
| 1777600087 | 12.78° C | 69% | 1013 hPa | 0 mm | - | - | - |
| 1777599787 | 12.78° C | 68% | 1012.9 hPa | 0 mm | - | - | - |
| 1777599487 | 13.33° C | 68% | 1012.9 hPa | 0 mm | - | - | - |
| 1777599186 | 13.33° C | 69% | 1012.5 hPa | 0 mm | - | - | - |
| 1777598886 | 13.33° C | 68% | 1012.3 hPa | 0 mm | - | - | - |
| 1777598586 | 13.33° C | 68% | 1012.3 hPa | 0 mm | - | - | - |
| 1777598286 | 13.89° C | 70% | 1011.9 hPa | 0 mm | - | - | - |
| 1777597986 | 13.89° C | 69% | 1011.9 hPa | 0 mm | - | - | - |
| 1777597686 | 13.89° C | 68% | 1011.8 hPa | 0 mm | - | - | - |
| 1777597386 | 13.89° C | 66% | 1011.6 hPa | 0 mm | - | - | - |
| 1777597085 | 14.44° C | 67% | 1011.6 hPa | 0 mm | - | - | - |
| 1777596785 | 14.44° C | 66% | 1011.4 hPa | 0 mm | - | - | - |
| 1777596485 | 14.44° C | 67% | 1011.3 hPa | 0 mm | - | - | - |
| 1777596185 | 14.44° C | 71% | 1011.2 hPa | 0 mm | - | - | - |
| 1777595885 | 15° C | 70% | 1011.1 hPa | 0 mm | - | - | - |
| 1777595585 | 15° C | 71% | 1011 hPa | 0 mm | - | - | - |
| 1777595285 | 15° C | 70% | 1010.9 hPa | 0 mm | - | - | - |
| 1777594984 | 15° C | 70% | 1010.9 hPa | 0 mm | - | - | - |
| 1777594684 | 15° C | 69% | 1010.7 hPa | 0 mm | - | - | - |
| 1777594384 | 15.56° C | 68% | 1010.6 hPa | 0 mm | - | - | - |
| 1777594084 | 15.56° C | 67% | 1010.5 hPa | 0 mm | - | - | - |
* Rain latest hour (hover to see other rain measurements)
** Current wind speed in m/s (hover to see current wind gust speed)